EZY520 LSZH-EDDS

Flight info

Callsign EZY520
Flight time 0h 31m
Altitude 15000
Route DEGES Z1 BODAN/N0331F140 Z1 ALAGO Z4 ARSUT T125 REUTL REUTL1W
Aircraft A20N/M-SDE2E3FGHIRWXY/LB1

Departure

Time 2026-02-17 14:08
Airport Zürich Airport (LSZH)

Arrival

Time 2026-02-17 14:39
Airport Stuttgart Airport (EDDS)
Time Latitude Longitude Altitude Speed Heading
2026-02-17 13:53 47.45411 8.55946 1405 ft 0 kts 185°
2026-02-17 14:01 47.45413 8.55947 1400 ft 3 kts 185°
2026-02-17 14:01 47.45432 8.55949 1401 ft 3 kts 185°
2026-02-17 14:01 47.45450 8.55952 1405 ft 3 kts 185°
2026-02-17 14:02 47.45469 8.55954 1405 ft 3 kts 185°
2026-02-17 14:02 47.45486 8.55949 1401 ft 3 kts 121°
2026-02-17 14:02 47.45489 8.55938 1409 ft 0 kts 94°
2026-02-17 14:04 47.45489 8.55951 1404 ft 6 kts 86°
2026-02-17 14:04 47.45488 8.56031 1408 ft 8 kts 96°
2026-02-17 14:05 47.45483 8.56099 1400 ft 9 kts 94°
2026-02-17 14:05 47.45479 8.56191 1400 ft 9 kts 94°
2026-02-17 14:05 47.45508 8.56245 1400 ft 7 kts 21°
2026-02-17 14:05 47.45582 8.56259 1400 ft 15 kts
2026-02-17 14:06 47.45690 8.56276 1405 ft 15 kts
2026-02-17 14:06 47.45787 8.56291 1407 ft 13 kts
2026-02-17 14:06 47.45884 8.56305 1411 ft 15 kts
2026-02-17 14:07 47.46140 8.56345 1406 ft 24 kts
2026-02-17 14:07 47.46244 8.56289 1404 ft 27 kts 316°
2026-02-17 14:07 47.46769 8.55570 1405 ft 135 kts 316°
2026-02-17 14:07 47.47631 8.54420 1682 ft 183 kts 315°
2026-02-17 14:08 47.48633 8.53116 2269 ft 208 kts 318°
2026-02-17 14:08 47.49396 8.52297 2937 ft 198 kts 320°
2026-02-17 14:08 47.50818 8.50912 4090 ft 183 kts 320°
2026-02-17 14:08 47.51546 8.50166 4557 ft 191 kts 317°
2026-02-17 14:09 47.52490 8.48846 4918 ft 188 kts 305°
2026-02-17 14:09 47.53129 8.47213 4996 ft 186 kts 290°
2026-02-17 14:09 47.53396 8.45321 4980 ft 186 kts 274°
2026-02-17 14:09 47.53254 8.43410 5018 ft 191 kts 259°
2026-02-17 14:10 47.52760 8.41566 4984 ft 193 kts 249°
2026-02-17 14:10 47.52146 8.39770 5020 ft 196 kts 245°
2026-02-17 14:10 47.51282 8.38182 5020 ft 204 kts 225°
2026-02-17 14:11 47.48401 8.37743 5024 ft 239 kts 155°
2026-02-17 14:11 47.47194 8.39477 5270 ft 254 kts 128°
2026-02-17 14:11 47.46214 8.41734 6147 ft 263 kts 116°
2026-02-17 14:11 47.45749 8.44337 7108 ft 271 kts 92°
2026-02-17 14:12 47.45691 8.47243 7635 ft 297 kts 84°
2026-02-17 14:12 47.45759 8.50398 8440 ft 311 kts 83°
2026-02-17 14:12 47.45825 8.53602 9499 ft 316 kts 83°
2026-02-17 14:12 47.45946 8.56897 10424 ft 326 kts 81°
2026-02-17 14:13 47.46104 8.60354 10846 ft 353 kts 81°
2026-02-17 14:13 47.46268 8.64105 11512 ft 370 kts 81°
2026-02-17 14:13 47.46417 8.67900 12494 ft 377 kts 81°
2026-02-17 14:13 47.46568 8.71829 13518 ft 382 kts 81°
2026-02-17 14:14 47.46718 8.75788 14337 ft 387 kts 80°
2026-02-17 14:14 47.46863 8.79769 14809 ft 392 kts 82°
2026-02-17 14:14 47.46703 8.83830 14930 ft 399 kts 93°
2026-02-17 14:15 47.45609 8.91856 14941 ft 398 kts 95°
2026-02-17 14:15 47.45480 8.95885 14944 ft 388 kts 77°
2026-02-17 14:15 47.46127 8.99637 14941 ft 375 kts 57°
2026-02-17 14:15 47.47535 9.02808 14929 ft 363 kts 40°
2026-02-17 14:16 47.49259 9.05503 14931 ft 361 kts 33°
2026-02-17 14:16 47.51121 9.07981 14936 ft 360 kts 31°
2026-02-17 14:16 47.53044 9.10371 14926 ft 360 kts 30°
2026-02-17 14:16 47.54979 9.12744 14923 ft 361 kts 30°
2026-02-17 14:17 47.56888 9.15116 14928 ft 361 kts 30°
2026-02-17 14:17 47.58804 9.17545 14924 ft 362 kts 31°
2026-02-17 14:17 47.60685 9.19972 14916 ft 362 kts 31°
2026-02-17 14:17 47.62585 9.22456 14912 ft 362 kts 31°
2026-02-17 14:18 47.64484 9.24957 14933 ft 363 kts 32°
2026-02-17 14:18 47.66354 9.27423 14908 ft 364 kts 32°
2026-02-17 14:18 47.68241 9.29914 14912 ft 366 kts 32°
2026-02-17 14:19 47.72035 9.34939 14900 ft 366 kts 32°
2026-02-17 14:19 47.73946 9.37474 14909 ft 366 kts 32°
2026-02-17 14:19 47.75849 9.39999 14878 ft 366 kts 32°
2026-02-17 14:19 47.77788 9.42369 14887 ft 358 kts 24°
2026-02-17 14:20 47.79956 9.43986 14882 ft 344 kts
2026-02-17 14:20 47.82271 9.44537 14907 ft 330 kts 350°
2026-02-17 14:20 47.84549 9.44227 14904 ft 328 kts 342°
2026-02-17 14:20 47.86789 9.43559 14889 ft 328 kts 338°
2026-02-17 14:21 47.88980 9.42723 14888 ft 328 kts 337°
2026-02-17 14:21 47.91193 9.41816 14891 ft 328 kts 336°
2026-02-17 14:21 47.93417 9.40904 14885 ft 329 kts 337°
2026-02-17 14:21 47.95619 9.40029 14887 ft 329 kts 337°
2026-02-17 14:22 47.97816 9.39183 14888 ft 329 kts 338°
2026-02-17 14:22 48.02318 9.37463 13303 ft 336 kts 339°
2026-02-17 14:23 48.06764 9.35896 12897 ft 325 kts 339°
2026-02-17 14:23 48.08986 9.35095 12886 ft 326 kts 339°
2026-02-17 14:23 48.11164 9.34299 12885 ft 326 kts 339°
2026-02-17 14:23 48.13373 9.33485 12883 ft 326 kts 339°
2026-02-17 14:24 48.15590 9.32797 12877 ft 331 kts 345°
2026-02-17 14:24 48.17934 9.32723 12886 ft 338 kts 355°
2026-02-17 14:24 48.20259 9.33036 12775 ft 335 kts 358°
2026-02-17 14:24 48.22581 9.33423 12149 ft 333 kts 358°
2026-02-17 14:25 48.24864 9.33813 11440 ft 333 kts 358°
2026-02-17 14:25 48.27183 9.34204 10761 ft 331 kts 358°
2026-02-17 14:25 48.29454 9.34581 10190 ft 331 kts 356°
2026-02-17 14:25 48.31759 9.34917 9915 ft 332 kts 356°
2026-02-17 14:26 48.34049 9.35245 9872 ft 333 kts 356°
2026-02-17 14:26 48.36306 9.35492 9877 ft 322 kts 352°
2026-02-17 14:26 48.38556 9.35879 9874 ft 317 kts
2026-02-17 14:27 48.42897 9.37729 9863 ft 328 kts 12°
2026-02-17 14:27 48.44923 9.39089 9872 ft 323 kts 17°
2026-02-17 14:27 48.46920 9.40817 9453 ft 333 kts 23°
2026-02-17 14:27 48.48827 9.42751 8941 ft 329 kts 26°
2026-02-17 14:28 48.50639 9.44748 8730 ft 315 kts 27°
2026-02-17 14:28 48.52355 9.46728 8523 ft 302 kts 27°
2026-02-17 14:28 48.53965 9.48640 8231 ft 293 kts 28°
2026-02-17 14:28 48.55549 9.50560 7951 ft 286 kts 28°
2026-02-17 14:29 48.57044 9.52415 7758 ft 275 kts 28°
2026-02-17 14:29 48.58488 9.54258 7622 ft 264 kts 29°
2026-02-17 14:29 48.59852 9.56066 7408 ft 259 kts 30°
2026-02-17 14:29 48.61184 9.57892 7125 ft 257 kts 31°
2026-02-17 14:30 48.62468 9.59714 6891 ft 256 kts 31°
2026-02-17 14:30 48.63764 9.61590 6856 ft 256 kts 31°
2026-02-17 14:31 48.67639 9.67206 6867 ft 257 kts 32°
2026-02-17 14:31 48.68928 9.69045 6856 ft 256 kts 30°
2026-02-17 14:31 48.70362 9.70352 6924 ft 228 kts 360°
2026-02-17 14:31 48.71840 9.70212 6669 ft 205 kts 324°
2026-02-17 14:32 48.72803 9.68787 6236 ft 196 kts 290°
2026-02-17 14:32 48.73272 9.66862 5701 ft 196 kts 282°
2026-02-17 14:32 48.73656 9.64838 5070 ft 200 kts 281°
2026-02-17 14:32 48.74031 9.62814 4582 ft 199 kts 281°
2026-02-17 14:33 48.74396 9.60846 4234 ft 190 kts 281°
2026-02-17 14:33 48.75082 9.57118 3998 ft 181 kts 281°
2026-02-17 14:33 48.75417 9.55287 4002 ft 182 kts 279°
2026-02-17 14:34 48.75388 9.53419 3992 ft 180 kts 255°
2026-02-17 14:34 48.75145 9.52198 3979 ft 183 kts 251°
2026-02-17 14:34 48.74928 9.51238 3996 ft 185 kts 250°
2026-02-17 14:35 48.74133 9.47821 3999 ft 182 kts 250°
2026-02-17 14:35 48.73713 9.46021 3995 ft 179 kts 250°
2026-02-17 14:35 48.73302 9.44258 4002 ft 178 kts 250°
2026-02-17 14:35 48.72903 9.42530 3998 ft 170 kts 253°
2026-02-17 14:36 48.72596 9.40815 3878 ft 168 kts 256°
2026-02-17 14:36 48.72307 9.39122 3650 ft 166 kts 255°
2026-02-17 14:36 48.71996 9.37428 3456 ft 165 kts 252°
2026-02-17 14:36 48.71650 9.35799 3253 ft 158 kts 251°
2026-02-17 14:37 48.71319 9.34306 3031 ft 143 kts 252°
2026-02-17 14:37 48.71032 9.32934 2817 ft 132 kts 254°
2026-02-17 14:37 48.70774 9.31614 2575 ft 133 kts 253°
2026-02-17 14:37 48.70487 9.30271 2259 ft 133 kts 254°
2026-02-17 14:38 48.70241 9.28923 2046 ft 133 kts 254°
2026-02-17 14:38 48.70004 9.27568 1757 ft 133 kts 252°
2026-02-17 14:38 48.69755 9.26211 1563 ft 139 kts 249°
2026-02-17 14:39 48.69203 9.23331 1290 ft 137 kts 250°
2026-02-17 14:39 48.69009 9.22301 1289 ft 59 kts 254°
2026-02-17 14:39 48.68964 9.22066 1289 ft 5 kts 254°
2026-02-17 14:39 48.68942 9.21835 1288 ft 36 kts 272°
2026-02-17 14:40 48.68981 9.21514 1288 ft 7 kts 285°
2026-02-17 14:40 48.68982 9.21512 1289 ft 0 kts 285°
2026-02-17 14:41 48.68987 9.21481 1288 ft 7 kts 285°
2026-02-17 14:42 48.68995 9.21436 1289 ft 9 kts 285°
2026-02-17 14:42 48.69006 9.21366 1289 ft 0 kts 283°
2026-02-17 14:43 48.69008 9.21354 1289 ft 3 kts 283°
2026-02-17 14:43 48.69014 9.21311 1288 ft 6 kts 283°
2026-02-17 14:43 48.69028 9.21224 1288 ft 10 kts 284°
2026-02-17 14:43 48.69040 9.21105 1288 ft 13 kts 260°
2026-02-17 14:44 48.69018 9.20982 1289 ft 15 kts 254°
2026-02-17 14:44 48.68994 9.20861 1288 ft 16 kts 255°
2026-02-17 14:44 48.68960 9.20683 1289 ft 19 kts 253°
2026-02-17 14:44 48.68922 9.20485 1288 ft 21 kts 253°
2026-02-17 14:45 48.68881 9.20267 1288 ft 22 kts 252°
2026-02-17 14:45 48.68839 9.20044 1288 ft 23 kts 253°
2026-02-17 14:45 48.68756 9.19841 1288 ft 22 kts 258°
2026-02-17 14:45 48.68715 9.19622 1288 ft 23 kts 254°
2026-02-17 14:46 48.68668 9.19382 1288 ft 24 kts 253°
2026-02-17 14:46 48.68682 9.19162 1288 ft 22 kts 340°
2026-02-17 14:46 48.68776 9.19223 1288 ft 16 kts 80°
2026-02-17 14:47 48.68899 9.19428 1288 ft 16 kts 344°
2026-02-17 14:47 48.68895 9.19430 1288 ft 0 kts 344°